Flag for Austria Weather past 2 weeks in Schwechat, Lower Austria, Austria

Now
73 °F

Passing clouds.


Feels Like: 77 °F
Forecast: 66 / 90 °F
Wind: 10 mph from Southeast

Location: Vienna Schwechat-Flughafen Airport

Current Time: Jul 3, 2015 at 8:44:16 AM

Latest Report: Jul 3, 2015 at 7:50 AM


Visibility: N/A

Pressure: 30.33 "Hg

Humidity: 47%

Dew point: 52 °F

Location of SchwechatLocation

Historic Weather in Schwechat — Graph

°F

Schwechat temperature yesterday

Maximum temperature yesterday: 88 °F (at 3:50 PM)
Minimum temperature yesterday: 63 °F (at 1:50 AM)
Average temperature yesterday: 75 °F

Past Weeks' High & Low Weather Summary

 TemperatureHumidityPressure
High88 °F (Jul 2, 3:50 PM)100% (Jun 22, 11:20 PM)30.30 "Hg (Jun 22, 11:20 PM)
Low48 °F (Jun 25, 4:50 AM)30% (Jun 30, 4:50 PM)29.77 "Hg (Jun 23, 3:50 AM)
Average65 °F63%30.07 "Hg
* Reported Jun 18 7:20 AM — Jul 3 7:20 AM, Schwechat, Weather by CustomWeather, © 2015

Note: Actual official high and low records may vary slightly from our data, if they occured in-between our weather recording intervals... More about our weather records

Advertising

Schwechat weather history for previous 24 hours

 ConditionsComfort  
Time TempWeatherWind HumidityBarometerVisibility
7:20 AM
Fri, Jul 3
72 °FSunny.8 mph50%30.30 "Hg10 mi
6:50 AM70 °FSunny.7 mph57%30.30 "Hg10 mi
6:20 AM68 °FSunny.7 mph60%30.30 "Hg10 mi
5:50 AM68 °FPassing clouds.6 mph60%30.30 "HgN/A
5:20 AM66 °FPassing clouds.3 mph64%30.27 "HgN/A
4:50 AM66 °FClear.6 mph68%30.27 "Hg10 mi
4:20 AM64 °FPassing clouds.3 mph78%30.27 "HgN/A
3:50 AM64 °FClear.2 mph78%30.27 "Hg10 mi
3:20 AM64 °FClear.1 mph73%30.27 "Hg10 mi
2:50 AM64 °FClear.2 mph78%30.27 "Hg10 mi
2:20 AM66 °FPassing clouds.5 mph73%30.27 "HgN/A
1:50 AM66 °FClear.3 mph68%30.24 "Hg10 mi
1:20 AM68 °FClear.5 mph64%30.24 "Hg10 mi
12:50 AM70 °FClear.3 mph60%30.24 "Hg10 mi
12:20 AM68 °FClear.3 mph64%30.24 "Hg10 mi
11:50 PM
Thu, Jul 2
70 °FClear.3 mph64%30.24 "Hg10 mi
11:20 PM72 °FClear.3 mph57%30.24 "Hg10 mi
10:50 PM72 °FClear.6 mph57%30.24 "Hg10 mi
10:20 PM75 °FClear.6 mph50%30.24 "Hg10 mi
9:50 PM77 °FSunny.7 mph47%30.24 "Hg10 mi
9:20 PM77 °FSunny.5 mph57%30.21 "Hg10 mi
8:50 PM77 °FSunny.5 mph61%30.21 "Hg10 mi
8:20 PM81 °FSunny.2 mph54%30.21 "Hg10 mi
7:50 PM84 °FSunny.3 mph43%30.18 "Hg10 mi
7:20 PM86 °FSunny.2 mph33%30.18 "Hg10 mi
6:50 PM86 °FPassing clouds.3 mph35%30.18 "HgN/A
6:20 PM86 °FSunny.3 mph35%30.18 "Hg10 mi
5:50 PM88 °FPassing clouds.5 mph35%30.18 "HgN/A
5:20 PM86 °FPassing clouds.5 mph35%30.18 "HgN/A
4:50 PM86 °FPassing clouds.3 mph35%30.18 "HgN/A
4:20 PM86 °FSunny.3 mph35%30.18 "Hg10 mi
3:50 PM88 °FSunny.3 mph31%30.18 "Hg10 mi
3:20 PM86 °FSunny.5 mph38%30.21 "Hg10 mi
2:50 PM86 °FSunny.6 mph35%30.21 "Hg10 mi
2:20 PM86 °FPassing clouds.7 mph40%30.21 "HgN/A
1:50 PM84 °FPassing clouds.7 mph40%30.21 "HgN/A
1:20 PM84 °FPassing clouds.6 mph40%30.21 "HgN/A
12:50 PM82 °FPassing clouds.6 mph42%30.21 "HgN/A
12:20 PM82 °FSunny.5 mph42%30.24 "Hg10 mi
11:50 AM81 °FSunny.3 mph48%30.24 "Hg10 mi
11:20 AM79 °FSunny.5 mph48%30.21 "Hg10 mi
10:50 AM77 °FPassing clouds.6 mph51%30.21 "HgN/A
10:20 AM77 °FPassing clouds.5 mph51%30.21 "HgN/A
9:50 AM75 °FPassing clouds.6 mph54%30.24 "HgN/A
9:20 AM73 °FPassing clouds.5 mph57%30.21 "HgN/A
8:50 AM72 °FPassing clouds.5 mph61%30.21 "HgN/A
8:20 AM70 °FPassing clouds.5 mph64%30.21 "HgN/A
Weather by CustomWeather, © 2015

See weather overviewHow to use our weather pages